When you browse on this site, cookies collect data to enhance your experience and personalize the content and advertising you see.
Visit our Privacy Policy to learn more. By continuing to use the site, you agree to this use of cookies and data.
  • In Portugal
  • List of Countries
  • For 7 days
  • Water Temperature
  • Weather Map
  • Weather Widgets
  • user-avatar
    Login

    Hourly Weather Druskininkai

    Today, 10 April, Friday

    Time Temperature Precipitation Wind Pressure Humidity
    00:00 +4°C° 0 mm 4 mps 754 mmHg 77%
    01:00 +3°C° 0 mm 3 mps 754 mmHg 74%
    02:00 +2°C° 0 mm 3 mps 754 mmHg 74%
    03:00 +2°C° 0 mm 3 mps 755 mmHg 73%
    04:00 +1°C° 0 mm 3 mps 755 mmHg 72%
    05:00 +1°C° 0 mm 3 mps 755 mmHg 71%
    06:00 +2°C° 0 mm 3 mps 756 mmHg 65%
    07:00 +3°C° 0 mm 3 mps 756 mmHg 59%
    08:00 +4°C° 0 mm 4 mps 757 mmHg 54%
    09:00 +5°C° 0 mm 4 mps 757 mmHg 49%
    10:00 +6°C° 0 mm 4 mps 757 mmHg 44%
    11:00 +8°C° 0 mm 4 mps 757 mmHg 39%
    12:00 +8°C° 0 mm 4 mps 757 mmHg 38%
    13:00 +10°C° 0 mm 4 mps 756 mmHg 37%
    14:00 +10°C° 0 mm 4 mps 756 mmHg 37%
    15:00 +10°C° 0 mm 4 mps 756 mmHg 38%
    16:00 +10°C° 0 mm 4 mps 756 mmHg 40%
    17:00 +9°C° 0 mm 5 mps 755 mmHg 41%
    18:00 +7°C° 0 mm 4 mps 756 mmHg 46%
    19:00 +7°C° 0 mm 3 mps 756 mmHg 51%
    20:00 +4°C° 0 mm 3 mps 756 mmHg 55%
    21:00 +3°C° 0 mm 3 mps 756 mmHg 59%
    22:00 +3°C° 0 mm 3 mps 756 mmHg 63%
    23:00 +2°C° 0 mm 3 mps 756 mmHg 66%

    Tomorrow, 11 April, Saturday

    Time Temperature Precipitation Wind Pressure Humidity
    00:00 +1°C° 0 mm 3 mps 757 mmHg 71%
    01:00 +2°C° 0 mm 2 mps 757 mmHg 76%
    02:00 +1°C° 0 mm 2 mps 757 mmHg 81%
    03:00 +1°C° 0 mm 2 mps 758 mmHg 83%
    04:00 -1°C° 0 mm 2 mps 758 mmHg 86%
    05:00 -1°C° 0 mm 2 mps 758 mmHg 88%
    06:00 +1°C° 0 mm 2 mps 759 mmHg 80%
    07:00 +1°C° 0 mm 3 mps 759 mmHg 71%
    08:00 +2°C° 0 mm 3 mps 759 mmHg 62%
    09:00 +4°C° 0 mm 3 mps 760 mmHg 55%
    10:00 +5°C° 0 mm 3 mps 760 mmHg 48%
    11:00 +8°C° 0 mm 3 mps 760 mmHg 41%
    12:00 +8°C° 0 mm 3 mps 760 mmHg 40%
    13:00 +9°C° 0 mm 3 mps 760 mmHg 38%
    14:00 +10°C° 0 mm 3 mps 760 mmHg 37%
    15:00 +9°C° 0 mm 3 mps 760 mmHg 38%
    16:00 +9°C° 0 mm 3 mps 760 mmHg 40%
    17:00 +9°C° 0 mm 3 mps 759 mmHg 41%
    18:00 +8°C° 0 mm 2 mps 760 mmHg 47%
    19:00 +7°C° 0 mm 1 mps 760 mmHg 52%
    20:00 +5°C° 0 mm 0 mps 760 mmHg 57%
    21:00 +6°C° 0 mm 1 mps 760 mmHg 58%
    22:00 +5°C° 0 mm 1 mps 760 mmHg 58%
    23:00 +5°C° 0 mm 1 mps 760 mmHg 59%

    Day after tomorrow, 12 April, Sunday

    Time Temperature Precipitation Wind Pressure Humidity
    00:00 +5°C° 0 mm 1 mps 760 mmHg 60%
    01:00 +4°C° 0 mm 2 mps 759 mmHg 61%
    02:00 +4°C° 0 mm 2 mps 759 mmHg 62%
    03:00 +3°C° 0 mm 2 mps 759 mmHg 63%
    04:00 +3°C° 0 mm 2 mps 759 mmHg 65%
    05:00 +2°C° 0 mm 3 mps 758 mmHg 66%
    06:00 +3°C° 0 mm 3 mps 758 mmHg 62%
    07:00 +4°C° 0 mm 4 mps 757 mmHg 57%
    08:00 +5°C° 0 mm 4 mps 757 mmHg 53%
    09:00 +7°C° 0 mm 5 mps 757 mmHg 50%
    10:00 +8°C° 0 mm 5 mps 756 mmHg 46%
    11:00 +9°C° 0 mm 5 mps 756 mmHg 43%
    12:00 +10°C° 0 mm 5 mps 755 mmHg 42%
    13:00 +12°C° 0 mm 5 mps 754 mmHg 41%
    14:00 +13°C° 0 mm 5 mps 754 mmHg 40%
    15:00 +13°C° 0 mm 5 mps 753 mmHg 43%
    16:00 +13°C° 0 mm 5 mps 753 mmHg 45%
    17:00 +13°C° 0 mm 4 mps 752 mmHg 47%
    18:00 +12°C° 0 mm 4 mps 752 mmHg 52%
    19:00 +11°C° 0 mm 3 mps 751 mmHg 57%
    20:00 +10°C° 0 mm 3 mps 750 mmHg 63%
    21:00 +9°C° 0 mm 3 mps 750 mmHg 64%
    22:00 +9°C° 0 mm 3 mps 750 mmHg 66%
    23:00 +7°C° 0 mm 4 mps 750 mmHg 68%

    13 April, Monday

    Time Temperature Precipitation Wind Pressure Humidity
    00:00 +7°C° 0 mm 4 mps 749 mmHg 69%
    01:00 +7°C° 0 mm 3 mps 749 mmHg 70%
    02:00 +7°C° 0 mm 3 mps 748 mmHg 70%
    03:00 +7°C° 0 mm 3 mps 748 mmHg 72%
    04:00 +5°C° 0 mm 3 mps 747 mmHg 73%
    05:00 +5°C° 0 mm 3 mps 746 mmHg 74%
    06:00 +7°C° 0 mm 3 mps 746 mmHg 71%
    07:00 +8°C° 0 mm 4 mps 745 mmHg 67%
    08:00 +10°C° 0 mm 4 mps 745 mmHg 64%
    09:00 +12°C° 0 mm 4 mps 744 mmHg 59%
    10:00 +14°C° 0 mm 5 mps 744 mmHg 54%
    11:00 +16°C° 0 mm 5 mps 743 mmHg 49%
    12:00 +17°C° 0.1 mm 5 mps 743 mmHg 47%
    13:00 +17°C° 0.1 mm 6 mps 742 mmHg 45%
    14:00 +19°C° 0.1 mm 6 mps 741 mmHg 42%
    15:00 +14°C° 0.5 mm 6 mps 741 mmHg 57%
    16:00 +10°C° 0.5 mm 6 mps 741 mmHg 71%
    17:00 +5°C° 0.5 mm 6 mps 741 mmHg 85%
    18:00 +3°C° 0.4 mm 6 mps 742 mmHg 86%
    19:00 +2°C° 0.4 mm 6 mps 742 mmHg 88%
    20:00 0°C° 0.4 mm 5 mps 743 mmHg 89%
    21:00 0°C° 0.1 mm 5 mps 743 mmHg 85%
    22:00 0°C° 0.1 mm 4 mps 744 mmHg 81%
    23:00 0°C° 0.1 mm 4 mps 744 mmHg 76%

    14 April, Tuesday

    Time Temperature Precipitation Wind Pressure Humidity
    00:00 -1°C° 0 mm 4 mps 745 mmHg 78%
    01:00 -1°C° 0 mm 3 mps 745 mmHg 80%
    02:00 -2°C° 0 mm 3 mps 745 mmHg 82%
    03:00 -2°C° 0 mm 3 mps 745 mmHg 80%
    04:00 -2°C° 0 mm 3 mps 746 mmHg 79%
    05:00 -4°C° 0 mm 3 mps 746 mmHg 78%
    06:00 -2°C° 0 mm 3 mps 746 mmHg 71%
    07:00 -2°C° 0 mm 4 mps 746 mmHg 64%
    08:00 0°C° 0 mm 4 mps 746 mmHg 57%
    09:00 0°C° 0.1 mm 5 mps 746 mmHg 54%
    10:00 +1°C° 0.1 mm 5 mps 746 mmHg 50%
    11:00 +2°C° 0.1 mm 6 mps 747 mmHg 47%
    12:00 +3°C° 0.2 mm 6 mps 747 mmHg 47%
    13:00 +3°C° 0.2 mm 7 mps 747 mmHg 47%
    14:00 +3°C° 0.2 mm 7 mps 747 mmHg 47%
    15:00 +3°C° 0.1 mm 7 mps 747 mmHg 49%
    16:00 +2°C° 0.1 mm 7 mps 747 mmHg 51%
    17:00 +2°C° 0.1 mm 7 mps 747 mmHg 53%
    18:00 0°C° 0 mm 7 mps 747 mmHg 57%
    19:00 -1°C° 0 mm 6 mps 748 mmHg 61%
    20:00 -2°C° 0 mm 6 mps 748 mmHg 65%
    21:00 -2°C° 0 mm 6 mps 749 mmHg 68%
    22:00 -3°C° 0 mm 6 mps 749 mmHg 71%
    23:00 -3°C° 0 mm 6 mps 749 mmHg 74%

    15 April, Wednesday

    Time Temperature Precipitation Wind Pressure Humidity
    00:00 -2°C° 0 mm 5 mps 749 mmHg 74%
    01:00 -4°C° 0 mm 5 mps 749 mmHg 73%
    02:00 -4°C° 0 mm 5 mps 750 mmHg 73%
    03:00 -4°C° 0 mm 5 mps 750 mmHg 72%
    04:00 -3°C° 0 mm 4 mps 750 mmHg 71%
    05:00 -3°C° 0 mm 4 mps 750 mmHg 70%
    06:00 -1°C° 0 mm 5 mps 750 mmHg 65%
    07:00 -1°C° 0 mm 6 mps 750 mmHg 60%
    08:00 +1°C° 0 mm 6 mps 750 mmHg 54%
    09:00 +2°C° 0 mm 6 mps 751 mmHg 51%
    10:00 +3°C° 0 mm 6 mps 751 mmHg 48%
    11:00 +4°C° 0 mm 6 mps 751 mmHg 44%
    12:00 +5°C° 0 mm 6 mps 751 mmHg 44%
    13:00 +7°C° 0 mm 6 mps 751 mmHg 44%
    14:00 +7°C° 0 mm 6 mps 751 mmHg 43%
    15:00 +7°C° 0 mm 6 mps 751 mmHg 47%
    16:00 +6°C° 0 mm 7 mps 751 mmHg 51%
    17:00 +6°C° 0 mm 7 mps 751 mmHg 55%
    18:00 +5°C° 0 mm 6 mps 751 mmHg 62%
    19:00 +3°C° 0 mm 5 mps 751 mmHg 69%
    20:00 +2°C° 0 mm 5 mps 751 mmHg 76%
    21:00 +3°C° 0 mm 4 mps 752 mmHg 79%
    22:00 +1°C° 0 mm 4 mps 752 mmHg 81%
    23:00 +1°C° 0 mm 4 mps 752 mmHg 84%
    Show more